Location: Daytona Beach
(29.2106°N, 81.0231°W)
Time: 00:31:37
(UTC-04:00)

ISS - Pass Details

Date: 27 June 2021
Orbit: 419 x 421 km, 51.6° (Epoch: 03 August)

Event Time Altitude Azimuth Distance (km) Brightness Sun altitude
Exits shadow 04:25:23 54° 12° (NNE) 514 -3.1 -22.2°
Drops below altitude 10° 04:28:09 10° 38° (NE) 1,496 0.2 -21.8°
Sets 04:30:16 0° 41° (NE) 2,362 1.6 -21.5°
